Theta_e
309 307 307 307 307 309 310 310 309 310 310 310 309 310 310 311 311 311 312 313 313 312 313 313 314 314 317 319 321 325 326 325 329 335 339 339 339 339 340 336 336 334 330 328
306 308 309 309 309 309 309 310 310 310 312 312 310 311 310 309 310 311 312 312 312 311 311 311 312 313 315 317 318 321 324 326 326 334 337 338 338 339 336 334 336 333 330 330
307 308 309 310 310 310 310 313 313 313 312 312 310 312 311 310 310 311 311 311 311 311 311 312 313 313 313 315 317 318 321 324 326 330 336 339 339 338 336 335 336 333 332 328
307 308 309 308 310 312 312 312 312 312 311 311 311 311 311 310 309 309 311 311 310 312 313 314 314 313 314 314 316 318 318 323 326 327 334 339 338 336 334 333 334 333 330 327
307 308 307 308 311 312 310 312 311 312 311 310 310 308 309 309 310 308 307 313 314 315 315 315 315 314 313 314 315 316 317 320 325 328 328 336 338 336 333 333 334 330 328 327
306 308 309 310 312 311 311 311 308 308 307 309 309 308 308 308 308 309 313 314 314 314 313 313 315 316 315 313 314 315 316 319 323 328 329 331 336 336 336 334 331 328 328 326
308 308 312 312 311 308 307 306 307 308 310 311 309 310 308 309 311 313 314 314 314 313 311 312 312 312 315 316 314 315 316 317 323 325 329 331 333 336 335 332 330 328 326 324
306 307 309 310 310 308 308 307 306 310 311 308 309 310 308 309 314 314 314 313 312 312 312 312 313 313 316 318 317 316 316 318 320 325 333 333 333 336 333 331 328 326 325 324
309 310 309 309 309 308 308 308 306 309 308 309 308 308 308 309 313 313 312 312 312 313 313 313 313 314 319 318 319 319 317 318 320 325 330 333 334 334 332 329 327 325 326 326
308 310 308 309 309 308 309 309 309 305 311 312 310 309 310 310 311 313 311 311 313 313 312 313 315 316 319 318 323 326 321 321 322 324 328 327 331 331 331 328 327 326 327 327
309 307 309 308 308 307 307 309 309 306 306 307 311 310 308 311 311 311 310 312 313 313 313 314 317 319 319 320 322 329 327 323 322 322 325 329 331 331 329 327 327 328 329 330
310 308 310 309 308 309 307 309 309 306 308 310 310 311 309 311 311 310 311 313 313 313 313 315 317 318 318 321 325 333 334 328 322 322 324 327 330 330 328 328 327 329 332 331
309 308 310 308 307 307 310 310 310 308 308 313 312 311 311 311 311 312 312 312 313 314 314 314 316 318 321 328 328 329 336 335 329 324 326 328 330 328 327 327 328 334 333 334
311 307 310 310 308 306 310 310 310 312 313 311 311 311 310 310 311 312 313 313 313 315 313 315 316 317 317 325 329 328 332 335 333 332 330 328 328 328 328 330 334 335 330 339
308 309 309 310 310 311 312 312 312 312 312 313 312 311 310 311 311 311 311 312 314 316 312 316 317 315 315 323 328 326 337 337 334 333 331 331 330 331 333 334 334 331 339 347
306 309 310 312 312 312 312 312 312 311 311 312 312 312 310 310 310 310 311 311 312 313 314 316 315 315 313 318 328 328 333 334 339 335 332 334 335 333 336 339 339 347 348 346
307 308 310 311 310 311 313 312 312 313 312 311 312 312 310 310 310 311 311 311 312 313 313 312 313 313 314 316 329 328 331 337 335 338 335 335 338 340 340 345 344 345 347 344
305 306 308 311 312 316 311 313 313 313 312 311 310 311 310 310 310 311 311 311 313 310 310 309 310 311 314 317 326 328 327 337 337 337 338 338 340 340 343 345 343 341 341 336
306 309 313 314 308 310 310 313 312 312 311 310 310 310 310 310 310 310 310 309 310 310 310 310 310 312 314 315 324 329 326 329 333 335 337 340 339 342 344 341 339 337 335 333
309 310 312 313 312 307 305 310 311 309 313 308 309 308 309 310 311 310 310 310 310 311 311 310 310 310 313 315 325 328 329 325 328 335 337 338 338 343 340 339 336 333 331 332
313 312 313 313 313 308 309 311 310 313 310 310 312 310 309 309 310 311 311 311 310 310 310 310 310 311 313 315 325 327 326 325 326 328 333 337 339 339 336 333 330 332 331 331
312 312 312 312 313 312 311 310 312 309 311 312 312 312 310 311 311 310 310 309 309 309 309 309 310 311 312 316 324 327 325 325 325 325 334 338 339 335 334 333 332 331 330 329
311 310 313 311 310 308 310 311 312 312 311 313 312 312 312 310 309 309 309 308 309 309 309 310 311 312 312 316 322 326 323 323 326 328 337 335 333 333 333 332 331 332 331 330
310 308 307 306 308 308 311 312 312 312 312 312 312 311 310 309 308 308 308 308 308 308 309 310 311 313 314 317 320 322 322 322 331 335 333 332 332 333 329 329 330 331 332 331
306 306 306 307 308 309 310 311 311 312 311 310 309 307 307 307 307 307 307 309 309 309 310 311 311 313 314 317 321 325 331 333 334 333 333 332 331 330 329 330 330 331 332 332
306 306 309 308 307 309 310 311 311 311 308 307 306 305 306 306 307 307 308 309 310 310 311 313 313 312 314 318 324 324 332 333 333 333 332 330 330 331 331 331 332 332 331 330
Wind_Speed
1 4 4 9 9 6 2 3 6 5 6 5 9 18 10 8 7 9 13 20 22 27 29 31 30 27 25 24 26 32 32 27 30 42 41 43 40 35 33 30 30 28 26 26
5 2 5 5 4 5 4 3 2 3 4 7 8 22 13 5 7 8 13 13 19 32 34 32 32 31 28 28 27 29 35 34 30 40 42 40 41 42 37 34 32 27 26 26
3 6 4 3 4 3 2 2 3 4 5 5 7 19 6 3 6 12 8 17 27 27 28 29 30 30 29 30 31 29 31 35 35 32 49 47 48 45 41 39 33 30 27 27
4 3 2 4 1 2 3 1 2 5 7 3 4 11 17 5 6 3 19 25 20 18 24 28 32 36 34 34 33 32 30 29 33 32 40 52 51 48 42 38 36 27 26 28
6 4 5 3 2 1 5 2 3 3 5 3 4 4 3 12 13 8 7 11 18 23 29 32 33 37 41 38 37 34 32 29 30 37 36 48 52 52 43 38 28 25 25 28
8 2 3 2 1 0 2 2 4 3 1 2 9 7 6 2 1 3 4 16 22 23 27 31 33 36 41 42 40 38 36 31 29 37 39 47 54 53 45 33 29 25 26 24
3 2 2 3 2 5 6 6 4 4 3 4 3 4 9 12 6 6 6 16 23 27 32 33 34 37 37 42 42 40 39 34 29 38 45 47 52 51 43 37 30 26 25 24
2 5 4 2 3 4 4 7 4 5 3 9 6 6 6 5 7 6 7 14 20 31 37 41 41 41 33 38 41 41 42 38 32 37 38 39 46 47 42 36 29 25 24 23
1 4 3 2 2 4 3 3 5 3 2 2 5 10 8 9 5 4 13 19 23 31 37 45 48 46 31 32 36 39 42 41 33 36 38 32 42 46 42 34 29 25 23 24
3 5 4 1 3 4 2 2 1 2 3 5 5 6 9 12 9 6 8 15 27 29 38 45 50 45 30 34 31 34 40 41 32 36 42 41 41 42 41 34 31 28 26 22
2 4 4 2 4 5 2 1 3 2 3 4 4 7 6 6 8 7 10 21 22 30 37 41 40 36 27 33 28 24 30 36 35 37 39 48 47 45 38 32 33 30 28 22
4 3 3 8 7 6 6 6 5 4 5 4 3 15 7 5 8 8 16 24 21 26 37 38 38 30 30 26 26 24 15 24 37 38 40 43 45 40 37 37 31 30 29 21
5 1 4 7 3 5 1 4 4 2 1 12 6 10 4 5 8 18 19 25 24 25 37 38 42 39 30 24 33 27 13 13 20 35 40 40 42 41 38 33 29 29 26 23
8 4 7 6 7 2 9 11 11 11 5 8 16 27 20 18 16 14 16 21 26 21 33 38 39 43 38 28 37 29 19 14 17 22 27 31 33 31 30 27 27 29 25 28
7 7 6 10 14 12 16 21 20 16 18 12 20 20 23 15 10 8 20 21 20 20 25 32 31 42 37 31 33 27 15 14 19 27 24 26 26 26 26 27 27 25 28 33
2 4 5 7 10 14 19 19 19 20 19 18 21 24 10 8 16 11 18 21 22 24 25 26 35 38 40 40 33 24 9 12 17 23 29 29 27 26 25 26 25 26 31 33
6 5 2 15 9 10 12 18 9 4 6 5 8 18 4 12 10 10 17 22 27 19 22 31 26 27 31 32 21 22 6 7 16 20 24 22 22 23 26 28 30 30 31 33
8 6 4 7 2 7 4 2 2 4 9 10 14 16 10 13 17 21 23 22 12 23 26 34 36 36 36 34 29 21 10 10 15 12 19 22 25 29 31 32 32 28 32 30
12 5 3 3 3 7 8 2 4 4 10 13 16 14 12 16 13 17 14 16 23 28 28 36 31 32 33 31 28 28 11 11 8 12 19 26 32 35 36 32 28 29 30 28
7 6 3 2 2 5 6 2 3 4 9 6 4 12 13 10 8 13 24 26 37 41 34 35 29 29 27 27 25 27 15 16 6 2 18 28 31 34 31 30 30 30 28 27
3 2 7 5 4 7 5 5 6 1 8 4 13 22 23 11 16 32 32 34 34 33 36 36 33 26 24 23 22 23 14 14 19 12 11 30 31 29 30 31 29 30 27 25
5 4 4 3 5 7 5 5 5 8 17 21 28 31 27 34 31 29 30 34 35 33 39 35 32 25 19 18 19 21 10 15 30 29 27 36 29 31 32 33 30 28 25 22
3 3 2 6 5 7 11 16 25 30 28 33 29 33 32 23 23 27 33 37 36 32 33 30 29 23 17 15 18 20 9 10 24 38 41 33 33 32 28 27 28 28 24 24
4 2 3 5 4 8 19 26 23 21 28 34 33 27 31 32 29 33 37 33 31 29 32 29 24 21 19 15 16 20 9 28 18 37 36 34 32 31 27 26 27 24 25 24
10 7 4 5 9 15 17 23 28 30 21 20 26 33 41 34 29 34 31 31 31 26 28 23 20 19 16 18 17 16 6 6 32 38 36 33 30 31 27 25 25 21 20 21
4 5 3 6 17 17 25 30 28 25 25 28 28 26 30 30 29 32 30 32 29 25 24 20 19 17 14 12 18 8 5 21 31 34 35 30 29 27 23 23 23 19 18 17
Wind_Direction
39 92 207 239 207 224 237 239 247 269 285 312 289 294 300 284 276 287 309 320 323 326 328 319 314 312 301 297 295 278 268 269 262 245 235 231 231 234 238 248 250 246 252 263
24 208 212 255 208 196 185 208 252 272 320 327 305 292 293 270 258 269 301 314 322 319 321 320 313 312 303 300 298 288 279 273 263 244 232 227 227 231 237 246 246 247 251 260
157 246 303 11 338 29 341 111 334 271 302 266 307 290 258 264 285 305 303 311 310 311 318 326 320 314 305 294 296 299 289 274 269 254 238 234 227 229 233 241 240 242 250 264
256 266 70 356 303 93 338 77 324 330 350 305 53 290 290 267 271 297 299 308 331 331 320 318 316 313 307 289 291 293 298 281 261 251 245 235 229 229 235 241 242 243 254 267
257 291 328 328 255 93 241 312 289 276 263 278 206 257 283 332 304 284 335 336 324 320 319 317 316 309 301 297 291 286 293 283 261 245 242 238 232 234 241 242 238 244 258 267
245 230 189 200 281 265 346 337 353 358 44 281 211 200 314 208 305 269 284 318 313 313 319 318 312 307 302 292 289 281 285 285 253 250 245 234 236 237 236 238 235 247 262 262
331 355 11 90 353 356 62 50 339 338 357 242 303 313 266 288 249 196 253 305 316 317 322 321 322 315 305 299 290 281 279 280 260 247 250 236 236 237 232 239 241 251 258 256
124 317 175 163 173 216 252 161 162 259 223 280 307 249 250 252 246 279 312 309 318 322 321 318 318 316 306 301 289 284 275 273 265 243 246 233 233 228 231 238 244 250 250 254
30 260 274 320 128 132 264 200 213 219 312 278 227 270 289 258 242 294 325 327 322 320 323 317 313 311 303 307 292 284 271 269 259 242 240 233 224 225 230 238 246 249 247 249
199 289 248 295 27 357 163 211 312 14 266 248 257 259 250 273 288 298 302 306 313 328 332 325 316 308 297 319 302 283 265 257 249 241 240 234 228 233 236 240 244 243 241 237
155 175 277 29 193 212 353 276 82 131 172 216 291 257 217 249 269 267 278 297 308 324 324 322 316 306 293 320 312 301 262 253 243 235 235 235 234 234 235 244 243 239 235 227
203 170 266 240 278 251 172 206 151 133 266 235 238 270 271 269 255 264 268 286 301 322 329 323 329 324 309 313 317 323 273 260 241 238 231 236 234 235 240 240 239 235 224 223
185 248 309 329 16 356 115 206 201 205 265 250 260 263 214 259 276 273 264 280 290 318 334 323 328 327 329 355 344 333 296 250 246 235 227 226 228 232 236 237 224 218 217 218
175 173 192 227 248 211 283 263 259 255 246 261 241 276 275 285 277 283 294 300 290 298 331 316 323 330 346 351 340 337 309 258 221 219 212 215 216 218 217 212 209 212 217 210
151 205 209 243 257 268 267 272 275 260 254 245 271 264 273 276 258 282 308 314 300 293 323 309 324 334 342 344 335 336 314 239 218 217 212 212 209 203 202 204 210 213 206 200
162 250 197 258 247 253 269 270 264 263 261 255 258 266 273 286 301 307 302 308 304 300 297 321 325 337 338 327 317 340 339 245 227 218 208 199 194 196 205 208 194 195 194 191
174 172 160 273 284 294 272 247 231 230 224 221 262 275 290 294 282 279 297 302 302 304 317 312 304 303 298 305 330 348 331 215 209 206 194 194 204 204 192 179 188 189 185 175
208 168 170 279 280 240 279 336 308 249 268 266 268 260 265 264 279 298 299 302 315 320 320 320 316 320 329 343 346 353 313 176 188 189 219 212 202 190 182 180 172 178 169 168
202 149 227 225 211 300 300 213 199 203 281 275 273 265 264 272 299 291 293 295 297 311 311 318 319 314 325 337 345 342 313 252 199 194 226 216 195 181 174 169 169 171 168 169
114 142 193 169 230 247 237 235 65 72 280 283 263 274 273 312 307 298 310 308 306 314 314 318 313 311 319 334 341 347 329 263 278 320 215 202 182 170 168 170 166 169 171 172
157 202 222 226 248 279 253 132 112 216 264 276 299 273 277 282 281 293 301 303 307 305 312 320 317 311 316 332 340 335 308 266 236 232 233 193 175 167 166 163 163 164 166 173
197 189 209 201 221 264 144 99 189 238 285 298 294 281 270 283 294 306 309 306 306 307 312 314 314 318 314 325 335 331 281 276 220 235 210 180 166 167 165 165 167 171 176 177
269 194 218 209 222 236 210 247 279 287 277 294 292 288 296 290 301 305 305 304 301 300 313 310 313 313 308 324 345 344 267 184 230 262 175 161 163 164 169 176 176 177 182 181
299 326 262 352 273 265 283 301 311 317 294 293 298 296 297 301 307 302 300 297 298 297 298 309 310 309 310 323 343 322 220 228 229 164 152 155 159 163 161 165 176 179 183 187
259 313 253 258 278 305 296 307 304 307 310 311 308 310 306 302 299 295 290 296 303 293 299 302 296 298 308 313 335 289 331 161 159 155 157 160 163 167 172 177 182 190 194 199
212 223 225 277 305 276 283 294 302 300 315 322 323 315 314 308 305 300 293 297 295 287 296 295 286 285 290 306 308 287 297 164 166 163 159 161 165 171 172 180 183 186 189 188